Time,TemperatureF,DewpointF,PressureIn,WindDirection,WindDirectionDegrees,WindSpeedMPH,WindSpeedGustMPH,Humidity,HourlyPrecipIn,Conditions,Clouds,dailyrainin,SoftwareType,DateUTC
2015-07-05 00:03:00,78.0,75.0,-100.00,NE,44,3.0,4.0,90,-99.99,,,-99.99,,2015-07-05 04:03:00,
2015-07-05 00:13:00,78.0,75.0,-100.00,NE,44,3.0,4.0,90,-99.99,,,-99.99,,2015-07-05 04:13:00,
2015-07-05 00:44:00,77.0,75.0,-100.00,North,350,1.0,4.0,93,-99.99,,,-99.99,,2015-07-05 04:44:00,
2015-07-05 00:54:00,77.0,75.0,-100.00,North,350,1.0,4.0,93,-99.99,,,-99.99,,2015-07-05 04:54:00,
2015-07-05 01:03:00,77.0,75.0,-100.00,North,350,1.0,4.0,93,-99.99,,,-99.99,,2015-07-05 05:03:00,
2015-07-05 01:13:00,77.0,75.0,-100.00,North,350,1.0,4.0,93,-99.99,,,-99.99,,2015-07-05 05:13:00,
2015-07-05 01:44:00,77.0,75.0,-100.00,NNE,15,2.0,4.0,94,-99.99,,,-99.99,,2015-07-05 05:44:00,
2015-07-05 01:54:00,77.0,75.0,-100.00,NNE,15,2.0,4.0,94,-99.99,,,-99.99,,2015-07-05 05:54:00,
2015-07-05 02:03:00,77.0,75.0,-100.00,NNE,15,2.0,4.0,94,-99.99,,,-99.99,,2015-07-05 06:03:00,
2015-07-05 02:13:00,77.0,75.0,-100.00,NNE,15,2.0,4.0,94,-99.99,,,-99.99,,2015-07-05 06:13:00,
2015-07-05 02:44:00,76.0,75.0,-100.00,North,8,3.0,6.0,96,-99.99,,,-99.99,,2015-07-05 06:44:00,
2015-07-05 02:53:00,76.0,75.0,-100.00,North,8,3.0,6.0,96,-99.99,,,-99.99,,2015-07-05 06:53:00,
2015-07-05 03:03:00,76.0,75.0,-100.00,North,8,3.0,6.0,96,-99.99,,,-99.99,,2015-07-05 07:03:00,
2015-07-05 03:13:00,76.0,75.0,-100.00,North,8,3.0,6.0,96,-99.99,,,-99.99,,2015-07-05 07:13:00,
2015-07-05 03:44:00,76.0,75.0,-100.00,NE,51,4.0,5.0,96,-99.99,,,-99.99,,2015-07-05 07:44:00,
2015-07-05 03:53:00,76.0,75.0,-100.00,NE,51,4.0,5.0,96,-99.99,,,-99.99,,2015-07-05 07:53:00,
2015-07-05 04:03:00,76.0,75.0,-100.00,NE,51,4.0,5.0,96,-99.99,,,-99.99,,2015-07-05 08:03:00,
2015-07-05 04:13:00,76.0,75.0,-100.00,NE,51,4.0,5.0,96,-99.99,,,-99.99,,2015-07-05 08:13:00,
2015-07-05 04:44:00,77.0,75.0,-100.00,NE,41,4.0,5.0,94,-99.99,,,-99.99,,2015-07-05 08:44:00,
2015-07-05 04:53:00,77.0,75.0,-100.00,NE,41,4.0,5.0,94,-99.99,,,-99.99,,2015-07-05 08:53:00,
2015-07-05 05:03:00,77.0,75.0,-100.00,NE,41,4.0,5.0,94,-99.99,,,-99.99,,2015-07-05 09:03:00,
2015-07-05 05:13:00,77.0,75.0,-100.00,NE,41,4.0,5.0,94,-99.99,,,-99.99,,2015-07-05 09:13:00,
2015-07-05 05:44:00,78.0,75.0,-100.00,East,94,4.0,6.0,91,-99.99,,,-99.99,,2015-07-05 09:44:00,
2015-07-05 05:54:00,78.0,75.0,-100.00,East,94,4.0,6.0,91,-99.99,,,-99.99,,2015-07-05 09:54:00,
2015-07-05 06:03:00,78.0,75.0,-100.00,East,94,4.0,6.0,91,-99.99,,,-99.99,,2015-07-05 10:03:00,
2015-07-05 06:13:00,78.0,75.0,-100.00,East,94,4.0,6.0,91,-99.99,,,-99.99,,2015-07-05 10:13:00,
2015-07-05 06:44:00,79.0,76.0,-100.00,East,91,3.0,5.0,91,-99.99,,,-99.99,,2015-07-05 10:44:00,
2015-07-05 06:54:00,79.0,76.0,-100.00,East,91,3.0,5.0,91,-99.99,,,-99.99,,2015-07-05 10:54:00,